Vancouver, WA

7:58 AM PST on December 16, 2017 (GMT -0800)
Pearson

Weather History for KVUO - January, 2012

Change the Weather History Date:

Tuesday, January 17, 2012

  Actual Average Record
Temperature  
Mean Temperature 37 °F 42 °F  
Max Temperature 41 °F 48 °F 61 °F (1900)
Min Temperature 33 °F 36 °F 7 °F (1907)
Degree Days  
Heating Degree Days 28    
Month to date heating degree days 440  
Since 1 July heating degree days 2171  
Cooling Degree Days 0    
Month to date cooling degree days 0  
Year to date cooling degree days 0  
Moisture  
Dew Point 37 °F    
Average Humidity 100    
Maximum Humidity 100    
Minimum Humidity 100    
Precipitation  
Precipitation 0.42 in 0.17 in 1.73 in (2015)
Month to date precipitation 1.29 3.23  
Year to date precipitation 1.29 3.23  
Snow  
Snow 0.00 in - - ()
Month to date snowfall 0.0  
Snow Depth 0.00 in    
Sea Level Pressure  
Sea Level Pressure 29.99 in    
Wind  
Wind Speed 5 mph (South)    
Max Wind Speed 16 mph    
Max Gust Speed 25 mph    
Visibility 7 miles    
Events Rain , Snow    
T = Trace of Precipitation, MM = Missing Value Source: NWS Daily Summary

Daily Weather History Graph

Daily Weather History Graph

Search for Another Location

Airport or City:

Trip Planner

Search our weather history database for the weather conditions in past years. The results will help you decide how hot, cold, wet, or windy it might be!

Date:

Astronomy

Jan. 17, 2012 Rise Set
Actual Time 7:46 AM PST 4:55 PM PST
Civil Twilight 7:13 AM PST 5:28 PM PST
Nautical Twilight 6:36 AM PST 6:05 PM PST
Astronomical Twilight 6:01 AM PST 6:40 PM PST
Moon 2:10 AM PST (1/17) 11:53 AM PST (1/17)
Length of Visible Light 10h 15m
Length of Day
9h 09m
Waning Crescent, 34% of the Moon is Illuminated
Jan 17
Waning Crescent
Jan 22
New
Jan 30
First Quarter
Feb 7
Full
Feb 14
Last Quarter

Hourly Weather History & Observations

Time (PST) Temp. Windchill Dew Point Humidity Pressure Visibility Wind Dir Wind Speed Gust Speed Precip Events Conditions
12:53 AM 37.9 °F 32.1 °F 36.0 °F 93% 30.08 in 10.0 mi South 8.1 mph 18.4 mph 0.01 in   Overcast
1:17 AM 37.4 °F 30.3 °F 35.6 °F 93% 30.07 in 10.0 mi SSW 10.4 mph 18.4 mph N/A   Overcast
1:45 AM 37.4 °F 31.4 °F 35.6 °F 93% 30.06 in 10.0 mi South 8.1 mph - N/A   Overcast
1:53 AM 37.9 °F 32.1 °F 37.0 °F 97% 30.06 in 10.0 mi South 8.1 mph - 0.00 in Rain Light Rain
2:53 AM 37.9 °F 32.7 °F 37.0 °F 97% 30.04 in 10.0 mi South 6.9 mph 16.1 mph 0.00 in   Overcast
3:27 AM 37.4 °F 31.4 °F 33.8 °F 87% 30.03 in 10.0 mi South 8.1 mph - 0.01 in Rain Light Rain
3:40 AM 37.4 °F 29.8 °F 35.6 °F 93% 30.03 in 8.0 mi South 11.5 mph 18.4 mph 0.03 in Rain Rain
3:51 AM 37.4 °F 31.4 °F 35.6 °F 93% 30.02 in 10.0 mi South 8.1 mph - 0.04 in Rain Light Rain
3:53 AM 37.0 °F 32.4 °F 36.0 °F 96% 30.02 in 10.0 mi Variable 5.8 mph - 0.04 in Rain Light Rain
4:25 AM 37.4 °F 31.4 °F 35.6 °F 93% 30.00 in 10.0 mi South 8.1 mph - 0.01 in   Overcast
4:33 AM 37.4 °F 30.8 °F 35.6 °F 93% 30.00 in 10.0 mi South 9.2 mph 16.1 mph 0.01 in Rain Light Rain
4:53 AM 37.9 °F 29.6 °F 36.0 °F 93% 29.99 in 10.0 mi South 13.8 mph 19.6 mph 0.02 in   Overcast
5:53 AM 37.0 °F 29.3 °F 36.0 °F 96% 29.98 in 10.0 mi SSW 11.5 mph 19.6 mph 0.00 in Rain Light Rain
6:02 AM 37.4 °F 30.8 °F 35.6 °F 93% 29.98 in 10.0 mi SSW 9.2 mph 20.7 mph 0.01 in Rain Light Rain
6:11 AM 35.6 °F 28.0 °F 35.6 °F 100% 29.97 in 5.0 mi SSW 10.4 mph 16.1 mph 0.03 in Snow Light Snow
6:29 AM 37.4 °F 30.8 °F 35.6 °F 93% 29.97 in 10.0 mi South 9.2 mph - 0.04 in   Overcast
6:53 AM 37.0 °F 31.0 °F 36.0 °F 96% 29.97 in 10.0 mi South 8.1 mph 19.6 mph 0.04 in Rain Light Rain
7:06 AM 37.4 °F 30.8 °F 35.6 °F 93% 29.96 in 10.0 mi South 9.2 mph - 0.00 in   Overcast
7:17 AM 37.4 °F 31.4 °F 35.6 °F 93% 29.95 in 10.0 mi South 8.1 mph - 0.00 in   Mostly Cloudy
7:24 AM 37.4 °F 32.1 °F 35.6 °F 93% 29.96 in 10.0 mi SSW 6.9 mph - 0.00 in   Mostly Cloudy
7:36 AM 37.4 °F 33.8 °F 35.6 °F 93% 29.96 in 10.0 mi Variable 4.6 mph - 0.00 in   Mostly Cloudy
7:44 AM 37.4 °F 32.1 °F 37.4 °F 100% 29.96 in 10.0 mi SSW 6.9 mph - 0.00 in   Mostly Cloudy
7:53 AM 37.0 °F 31.0 °F 37.0 °F 100% 29.96 in 10.0 mi South 8.1 mph - 0.00 in   Overcast
8:20 AM 35.6 °F 30.7 °F 35.6 °F 100% 29.96 in 8.0 mi South 5.8 mph - 0.01 in Snow Light Snow
8:25 AM 35.6 °F 29.9 °F 35.6 °F 100% 29.96 in 9.0 mi South 6.9 mph - 0.01 in Snow Light Snow
8:53 AM 37.0 °F 29.8 °F 36.0 °F 96% 29.96 in 10.0 mi SSW 10.4 mph 17.3 mph 0.02 in Rain Light Rain
9:00 AM 37.4 °F 29.8 °F 35.6 °F 93% 29.97 in 6.0 mi SSW 11.5 mph 17.3 mph 0.01 in Rain Rain
9:53 AM 37.0 °F 29.3 °F 37.0 °F 100% 29.97 in 9.0 mi SSW 11.5 mph 19.6 mph 0.05 in Rain Light Rain
10:37 AM 37.4 °F 29.8 °F 37.4 °F 100% 29.98 in 10.0 mi SSW 11.5 mph - 0.01 in   Overcast
10:44 AM 37.4 °F 29.8 °F 37.4 °F 100% 29.97 in 8.0 mi SSW 11.5 mph 21.9 mph 0.02 in Rain Light Rain
10:51 AM 37.4 °F 30.3 °F 37.4 °F 100% 29.98 in 8.0 mi SSW 10.4 mph 21.9 mph 0.03 in Rain Light Rain
10:53 AM 37.9 °F 30.9 °F 37.0 °F 97% 29.98 in 9.0 mi SSW 10.4 mph 17.3 mph 0.03 in Rain Light Rain
11:53 AM 37.9 °F 33.5 °F 37.9 °F 100% 29.98 in 10.0 mi SSW 5.8 mph - 0.02 in Rain Light Rain
12:33 PM 39.2 °F 34.2 °F 39.2 °F 100% 29.96 in 10.0 mi South 6.9 mph - 0.02 in   Scattered Clouds
12:53 PM 39.9 °F 36.7 °F 39.9 °F 100% 29.95 in 10.0 mi Variable 4.6 mph - 0.02 in   Mostly Cloudy
1:53 PM 39.9 °F 37.8 °F 39.9 °F 100% 29.94 in 10.0 mi SSW 3.5 mph - 0.00 in Rain Light Rain
2:00 PM 41.0 °F - 41.0 °F 100% 29.94 in 10.0 mi Calm Calm - 0.00 in   Overcast
2:53 PM 39.0 °F 34.8 °F 39.0 °F 100% 29.96 in 10.0 mi SSW 5.8 mph - 0.01 in Rain Light Rain
3:46 PM 39.2 °F - - N/A% 29.97 in 6.0 mi Calm Calm - 0.02 in Rain Light Rain
3:53 PM 39.0 °F - - N/A% 29.97 in 6.0 mi Calm Calm - 0.02 in Rain Light Rain
4:39 PM 39.2 °F - - N/A% 29.97 in 10.0 mi Calm Calm - 0.02 in Rain Light Rain
4:53 PM 39.0 °F - - N/A% 29.97 in 10.0 mi Calm Calm - 0.02 in Rain Light Rain
5:13 PM 39.2 °F - - N/A% 29.97 in 10.0 mi Calm Calm - 0.01 in Rain Light Rain
5:53 PM 37.9 °F - - N/A% 29.98 in 6.0 mi Calm Calm - 0.02 in Rain Light Rain
6:23 PM 37.4 °F - - N/A% 29.98 in 6.0 mi Calm Calm - 0.02 in Rain Light Rain
6:53 PM 37.9 °F - - N/A% 29.99 in 7.0 mi Calm Calm - 0.03 in Rain Light Rain
7:08 PM 37.4 °F - - N/A% 29.98 in 7.0 mi Calm Calm - 0.01 in Rain Light Rain
7:37 PM 37.4 °F 33.8 °F - N/A% 29.99 in 5.0 mi NE 4.6 mph - 0.01 in Rain Light Rain
7:53 PM 37.0 °F 34.5 °F - N/A% 29.99 in 5.0 mi Variable 3.5 mph - 0.02 in Rain Light Rain
8:04 PM 37.4 °F 34.9 °F - N/A% 29.99 in 6.0 mi North 3.5 mph - 0.01 in Rain Light Rain
8:30 PM 35.6 °F - - N/A% 29.99 in 7.0 mi Calm Calm - 0.03 in Rain Light Rain
8:38 PM 35.6 °F - - N/A% 29.99 in 9.0 mi Calm Calm - 0.03 in Rain Light Rain
8:53 PM 35.1 °F - - N/A% 29.99 in 4.0 mi Calm Calm - 0.04 in Snow Light Snow
9:06 PM 33.8 °F - - N/A% 29.99 in 2.5 mi Calm Calm - 0.00 in Snow Light Snow
9:09 PM 33.8 °F - - N/A% 29.99 in 3.0 mi Calm Calm - 0.00 in Snow Light Snow
9:22 PM 33.8 °F - - N/A% 29.99 in 2.0 mi Calm Calm - 0.00 in Snow Light Snow
9:35 PM 33.8 °F - - N/A% 29.99 in 1.8 mi Calm Calm - 0.01 in Snow Light Snow
9:49 PM 33.8 °F - - N/A% 29.99 in 1.2 mi Calm Calm - 0.01 in Snow Light Snow
9:53 PM 34.0 °F - - N/A% 30.00 in 1.0 mi Calm Calm - 0.01 in Snow Light Snow
10:15 PM 33.8 °F - - N/A% 29.99 in 0.8 mi Calm Calm - 0.00 in Snow Light Snow
10:30 PM 33.8 °F - - N/A% 29.99 in 1.0 mi Calm Calm - 0.00 in Snow Light Snow
10:50 PM 33.8 °F - - N/A% 29.99 in 0.8 mi Calm Calm - 0.00 in Snow Light Snow
10:53 PM 33.1 °F - - N/A% 29.99 in 1.0 mi Calm Calm - 0.00 in Snow Light Snow
11:02 PM 33.8 °F - - N/A% 29.98 in 0.8 mi Calm Calm - 0.00 in Snow Light Snow
11:25 PM 33.8 °F - - N/A% 29.98 in 1.0 mi Calm Calm - 0.00 in Snow Light Snow
11:53 PM 34.0 °F 31.0 °F - N/A% 29.98 in 1.2 mi ESE 3.5 mph - 0.00 in Snow Light Snow